#timestamp,LO_Frequency,Hit,StdDev 
1621317615.5,286046999.0,N
1621317635.3,286046996.7,N
1621317655.2,286046999.6,N
1621317675.9,286046997.3,N
1621317695.7,286046999.0,N
1621317715.6,286046998.8,N
1621317735.4,286047000.2,N
1621317755.2,286046998.9,N
1621317775.1,286046999.4,N
1621317776.0,286046999.4,N
1621317795.8,286046999.5,N
1621317815.7,286047000.7,N
1621317835.5,286046998.4,N
1621317855.3,286046996.5,N
1621317875.2,286046995.3,N
1621317895.0,286046998.9,N
1621317895.9,286046998.9,N
1621317915.7,286046998.7,N
1621317935.6,286046995.2,N
1621317955.4,286046993.6,Y
1621317975.3,286046996.7,P
1621317995.1,286047001.2,N
1621317996.0,286047001.2,N
1621318015.8,286046998.1,N
1621318035.7,286047002.7,N
1621318055.3,286047000.4,N
1621318075.2,286046998.8,N
1621318095.9,286046998.4,N
1621318115.7,286047000.7,N
1621318135.6,286047002.3,N
1621318155.4,286047002.5,N
1621318175.2,286047001.9,N
1621318195.1,286047002.3,N
1621318196.0,286047002.3,N
1621318215.8,286046999.9,N
1621318235.7,286046998.8,N
1621318255.5,286047000.1,N
1621318275.3,286047000.8,N
1621318295.2,286047002.5,N
1621318315.9,286047002.4,N
1621318335.7,286047004.4,N
1621318355.6,286047002.1,N
1621318375.4,286047001.6,N
1621318395.2,286047002.0,N
1621318415.1,286047000.1,N
1621318416.0,286047000.1,N
1621318435.8,286047001.4,N
1621318455.7,286047004.1,N
1621318475.5,286047001.6,N
1621318525.4,286047002.2,E
1621318535.3,286046999.9,N
1621318555.1,286047002.4,P
1621318575.9,286047000.4,N
1621318595.7,286047001.8,N
1621318615.5,286047002.8,N
1621318635.4,286047001.9,N
1621318655.2,286047002.0,N
1621318675.0,286047001.9,N
1621318675.9,286047001.9,N
1621318695.8,286047001.4,N
1621318715.6,286047001.7,N
1621318735.5,286047002.8,Y
1621318755.3,286047001.1,P
1621318775.1,286046998.4,P
1621318795.9,286046997.3,N
1621318815.7,286046999.2,N
1621318835.6,286046999.6,N
1621318855.4,286046999.4,N
1621318875.2,286047002.6,N
1621318895.1,286047002.1,N
1621318896.0,286047002.1,N
1621318915.8,286047000.3,N
1621318935.6,286046998.8,N
1621318955.5,286046998.4,N
1621319005.4,286046998.8,E
1621319015.3,286046998.2,N
1621319035.1,286047000.7,P
1621319055.9,286046998.8,N
1621319075.7,286046997.7,N
1621319095.5,286046999.1,N
1621319115.4,286046999.2,N
1621319135.2,286046997.1,Y
1621319155.0,286047000.7,P
1621319155.9,286047000.7,N
1621319175.8,286046998.4,N
1621319195.6,286046998.3,N
1621319215.5,286047000.7,N
1621319235.3,286047001.3,N
1621319255.1,286047001.9,N
1621319275.9,286047002.0,N
1621319295.7,286046999.8,N
1621319315.5,286046998.6,N
1621319335.4,286047000.7,N
1621319355.2,286047000.7,N
1621319375.1,286047000.5,N
1621319376.0,286047000.5,N
1621319395.8,286047000.0,N
1621319415.6,286047002.7,N
1621319435.5,286047000.6,N
1621319455.3,286046996.6,N
1621319475.1,286046997.2,N
1621319495.9,286047000.6,N
1621319515.7,286047000.0,N
1621319535.6,286046999.9,N
1621319555.4,286047000.0,N
1621319575.2,286047000.4,N
1621319595.1,286047002.5,N
1621319596.0,286047002.5,N
1621319615.8,286047001.4,N
1621319635.7,286047002.0,N
1621319655.5,286047004.1,N
1621319675.4,286047002.4,N
1621319695.2,286047000.5,N
1621319715.0,286047004.4,N
1621319715.9,286047004.4,N
1621319735.8,286047002.0,N
1621319755.6,286046999.9,N
1621319775.4,286047001.2,N
1621319795.3,286047000.9,N
1621319815.1,286047001.3,N
1621319835.9,286047002.2,N
1621319855.7,286047004.3,N
1621319875.5,286047003.8,N
1621319895.4,286047001.3,N
1621319915.2,286047003.0,N
1621319935.0,286047003.9,N
1621319935.9,286047003.9,N
1621319955.8,286047000.1,N
1621319975.6,286046998.2,N
1621319995.5,286046996.7,N
1621320015.3,286047000.7,N
1621320035.1,286047000.1,N
1621320055.9,286047002.0,N
1621320075.7,286047004.3,N
1621320095.5,286047001.4,N
1621320115.4,286047004.3,N
1621320135.2,286047003.4,N
1621320155.1,286047007.0,Y
1621320156.0,286047007.0,P
1621320175.8,286047005.6,N
1621320195.6,286047003.1,N
1621320215.5,286047002.3,N
1621320235.3,286047002.1,N
1621320255.1,286047002.7,N
1621320275.9,286046998.8,N
1621320295.7,286047000.9,N
1621320315.6,286047001.7,N
1621320335.4,286047001.7,N
1621320355.2,286047002.7,N
1621320375.1,286047002.2,N
1621320376.0,286047002.2,N
1621320395.8,286047000.9,N
1621320415.6,286046998.8,N
1621320435.5,286046999.6,N
1621320455.3,286046999.4,N
1621320475.2,286046996.5,N
1621320495.9,286046998.9,N
1621320515.7,286046998.2,N
1621320535.6,286047000.5,N
1621320555.4,286046998.6,N
1621320575.3,286047000.5,N
1621320595.1,286047002.5,N
1621320596.0,286047002.5,N
1621320615.8,286047000.5,N
1621320635.7,286047001.7,N
1621320655.5,286047001.2,N
1621320675.4,286046999.2,N
1621320695.2,286046997.8,N
1621320715.0,286046998.4,N
1621320715.9,286046998.4,N
1621320735.8,286046998.5,N
1621320755.6,286047002.7,N
1621320775.4,286046999.8,N
1621320795.3,286047000.2,N
1621320815.1,286047004.4,N
1621320835.9,286046999.8,N
1621320855.7,286047000.8,N
1621320875.5,286047000.6,N
1621320895.4,286047002.0,N
1621320915.2,286047002.3,N
1621320935.0,286047004.3,N
1621320935.9,286047004.3,N
1621320955.8,286047003.6,N
1621320975.6,286047003.4,N
1621320995.4,286047003.7,N
1621321015.3,286047002.0,N
1621321035.1,286047002.0,N
1621321055.9,286047002.4,N
1621321075.7,286047000.0,N
1621321095.5,286047000.3,N
1621321115.4,286047002.7,N
1621321135.2,286047000.0,N
1621321155.1,286047002.0,N
1621321156.0,286047002.0,N
1621321175.8,286047004.4,N
1621321195.6,286047005.9,Y
